AAY843 KPGD-KLCK

Flight info

Callsign AAY843
Flight time 1h 59m
Altitude 38000
Route ROGAN LAL DOFFY CAMJO/N0461F390 HEPAR IRQ SPA J85 NEALS/N0460F400 MCGNS SCRLT2
Aircraft A339/H-SADE1E2E3GHIJ3J5M1P2RWXY/LB2D1

Departure

Time 2026-04-25 13:35
Airport Punta Gorda Airport (KPGD)

Arrival

Time 2026-04-25 15:34
Airport Rickenbacker International Airport (KLCK)
Time Latitude Longitude Altitude Speed Heading
2026-04-25 13:16 26.91728 -81.99752 33 ft 0 kts 243°
2026-04-25 13:26 26.91729 -81.99751 34 ft 2 kts 243°
2026-04-25 13:27 26.91734 -81.99739 33 ft 1 kts 227°
2026-04-25 13:27 26.91756 -81.99724 31 ft 5 kts 160°
2026-04-25 13:27 26.91763 -81.99726 32 ft 0 kts 145°
2026-04-25 13:29 26.91757 -81.99721 32 ft 5 kts 144°
2026-04-25 13:29 26.91727 -81.99693 34 ft 9 kts 135°
2026-04-25 13:30 26.91749 -81.99564 35 ft 10 kts 63°
2026-04-25 13:30 26.91768 -81.99488 36 ft 11 kts 77°
2026-04-25 13:30 26.91781 -81.99404 36 ft 11 kts 81°
2026-04-25 13:31 26.91792 -81.99249 40 ft 8 kts 85°
2026-04-25 13:31 26.91797 -81.99173 42 ft 13 kts 85°
2026-04-25 13:31 26.91805 -81.99069 43 ft 16 kts 85°
2026-04-25 13:31 26.91817 -81.98922 42 ft 20 kts 81°
2026-04-25 13:32 26.91898 -81.98809 42 ft 19 kts 35°
2026-04-25 13:32 26.92029 -81.98729 40 ft 25 kts 28°
2026-04-25 13:32 26.92181 -81.98632 40 ft 25 kts 30°
2026-04-25 13:32 26.92332 -81.98537 39 ft 25 kts 29°
2026-04-25 13:33 26.92481 -81.98447 42 ft 24 kts 28°
2026-04-25 13:33 26.92627 -81.98358 41 ft 24 kts 29°
2026-04-25 13:33 26.92745 -81.98280 43 ft 14 kts 33°
2026-04-25 13:33 26.92758 -81.98194 44 ft 10 kts 115°
2026-04-25 13:34 26.92705 -81.98178 45 ft 7 kts 187°
2026-04-25 13:34 26.92669 -81.98195 45 ft 0 kts 208°
2026-04-25 13:34 26.92478 -81.98305 44 ft 74 kts 207°
2026-04-25 13:35 26.91778 -81.98731 41 ft 150 kts 209°
2026-04-25 13:35 26.90717 -81.99383 292 ft 188 kts 206°
2026-04-25 13:35 26.89553 -82.00081 1017 ft 201 kts 206°
2026-04-25 13:35 26.88262 -82.00854 1623 ft 221 kts 207°
2026-04-25 13:36 26.86964 -82.01869 2178 ft 240 kts 226°
2026-04-25 13:36 26.86102 -82.03547 2558 ft 261 kts 252°
2026-04-25 13:36 26.86000 -82.05603 3087 ft 271 kts 280°
2026-04-25 13:36 26.86737 -82.07537 3714 ft 273 kts 307°
2026-04-25 13:37 26.88173 -82.08907 4386 ft 274 kts 334°
2026-04-25 13:37 26.90017 -82.09432 4991 ft 276 kts
2026-04-25 13:37 26.91874 -82.08977 5674 ft 276 kts 27°
2026-04-25 13:37 26.93369 -82.07636 6333 ft 278 kts 52°
2026-04-25 13:38 26.94520 -82.05870 6919 ft 282 kts 53°
2026-04-25 13:38 26.95822 -82.04262 7528 ft 284 kts 42°
2026-04-25 13:38 26.97400 -82.02934 8187 ft 285 kts 31°
2026-04-25 13:38 26.99145 -82.01860 8875 ft 286 kts 25°
2026-04-25 13:39 27.00963 -82.00935 9537 ft 289 kts 22°
2026-04-25 13:39 27.02825 -82.00054 10195 ft 291 kts 21°
2026-04-25 13:39 27.04754 -81.99150 10428 ft 310 kts 21°
2026-04-25 13:39 27.06800 -81.98179 10598 ft 328 kts 21°
2026-04-25 13:40 27.08943 -81.97148 10945 ft 339 kts 22°
2026-04-25 13:40 27.11114 -81.96088 11561 ft 340 kts 22°
2026-04-25 13:40 27.13293 -81.95021 12162 ft 342 kts 21°
2026-04-25 13:40 27.15483 -81.93948 12777 ft 344 kts 21°
2026-04-25 13:41 27.17683 -81.92871 13409 ft 346 kts 21°
2026-04-25 13:41 27.19892 -81.91788 13973 ft 348 kts 21°
2026-04-25 13:41 27.22132 -81.90693 14434 ft 352 kts 21°
2026-04-25 13:41 27.24450 -81.89928 14888 ft 352 kts
2026-04-25 13:42 27.26886 -81.89789 15404 ft 352 kts 357°
2026-04-25 13:42 27.29350 -81.89942 15896 ft 355 kts 353°
2026-04-25 13:42 27.31809 -81.90279 16390 ft 357 kts 349°
2026-04-25 13:42 27.34270 -81.90756 16874 ft 361 kts 348°
2026-04-25 13:43 27.36760 -81.91197 17376 ft 364 kts 349°
2026-04-25 13:43 27.39277 -81.91613 17869 ft 368 kts 349°
2026-04-25 13:43 27.41825 -81.92026 18340 ft 371 kts 349°
2026-04-25 13:43 27.44388 -81.92440 18819 ft 373 kts 349°
2026-04-25 13:44 27.46966 -81.92859 19286 ft 375 kts 349°
2026-04-25 13:44 27.49560 -81.93284 19770 ft 377 kts 349°
2026-04-25 13:44 27.52167 -81.93712 20244 ft 379 kts 349°
2026-04-25 13:44 27.54786 -81.94143 20707 ft 382 kts 349°
2026-04-25 13:45 27.57424 -81.94577 21204 ft 384 kts 349°
2026-04-25 13:45 27.60069 -81.95013 21674 ft 386 kts 349°
2026-04-25 13:45 27.62739 -81.95452 22144 ft 389 kts 349°
2026-04-25 13:45 27.65427 -81.95895 22628 ft 391 kts 349°
2026-04-25 13:46 27.68122 -81.96340 23130 ft 393 kts 349°
2026-04-25 13:46 27.70841 -81.96789 23601 ft 395 kts 349°
2026-04-25 13:46 27.73569 -81.97240 24003 ft 398 kts 349°
2026-04-25 13:46 27.76325 -81.97696 24415 ft 400 kts 349°
2026-04-25 13:47 27.79055 -81.98147 24810 ft 402 kts 349°
2026-04-25 13:47 27.81824 -81.98606 25208 ft 405 kts 349°
2026-04-25 13:47 27.84625 -81.99071 25605 ft 407 kts 350°
2026-04-25 13:47 27.87434 -81.99536 25985 ft 410 kts 350°
2026-04-25 13:48 27.90266 -82.00006 26378 ft 412 kts 350°
2026-04-25 13:48 27.93114 -82.00478 26754 ft 415 kts 350°
2026-04-25 13:48 27.95978 -82.00953 27139 ft 417 kts 351°
2026-04-25 13:48 27.98829 -82.01570 27475 ft 419 kts 345°
2026-04-25 13:49 28.01615 -82.02561 27845 ft 421 kts 339°
2026-04-25 13:49 28.04383 -82.03697 28187 ft 423 kts 340°
2026-04-25 13:49 28.07172 -82.04820 28536 ft 426 kts 340°
2026-04-25 13:49 28.09970 -82.05937 28891 ft 428 kts 340°
2026-04-25 13:50 28.12803 -82.07068 29227 ft 431 kts 340°
2026-04-25 13:50 28.15601 -82.08186 29553 ft 433 kts 340°
2026-04-25 13:50 28.18456 -82.09328 29910 ft 435 kts 340°
2026-04-25 13:50 28.21323 -82.10476 30202 ft 438 kts 340°
2026-04-25 13:51 28.24200 -82.11629 30501 ft 440 kts 340°
2026-04-25 13:51 28.27094 -82.12790 30820 ft 442 kts 340°
2026-04-25 13:51 28.30002 -82.13958 31127 ft 444 kts 340°
2026-04-25 13:51 28.32922 -82.15131 31437 ft 446 kts 340°
2026-04-25 13:52 28.35860 -82.16311 31729 ft 448 kts 340°
2026-04-25 13:52 28.38813 -82.17498 32020 ft 450 kts 340°
2026-04-25 13:52 28.41772 -82.18689 32299 ft 452 kts 340°
2026-04-25 13:52 28.44716 -82.19874 32544 ft 455 kts 340°
2026-04-25 13:53 28.47735 -82.21090 32799 ft 456 kts 340°
2026-04-25 13:53 28.50697 -82.22284 32990 ft 458 kts 340°
2026-04-25 13:53 28.53699 -82.23495 33188 ft 459 kts 340°
2026-04-25 13:53 28.56723 -82.24715 33351 ft 461 kts 340°
2026-04-25 13:54 28.59739 -82.25933 33517 ft 462 kts 340°
2026-04-25 13:54 28.62770 -82.27157 33710 ft 461 kts 340°
2026-04-25 13:54 28.65796 -82.28380 33933 ft 461 kts 340°
2026-04-25 13:54 28.68818 -82.29602 34131 ft 460 kts 340°
2026-04-25 13:55 28.71839 -82.30824 34325 ft 460 kts 340°
2026-04-25 13:55 28.74853 -82.32045 34520 ft 459 kts 340°
2026-04-25 13:55 28.77869 -82.33266 34716 ft 458 kts 340°
2026-04-25 13:55 28.80872 -82.34484 34908 ft 458 kts 340°
2026-04-25 13:56 28.83872 -82.35701 35102 ft 457 kts 340°
2026-04-25 13:56 28.86863 -82.36915 35297 ft 456 kts 340°
2026-04-25 13:56 28.88845 -82.37720 35404 ft 456 kts 340°
2026-04-25 13:56 28.92807 -82.39330 35656 ft 455 kts 340°
2026-04-25 13:57 28.95790 -82.40544 35841 ft 454 kts 340°
2026-04-25 13:57 29.01736 -82.42964 36197 ft 453 kts 340°
2026-04-25 13:57 29.03746 -82.43784 36320 ft 453 kts 340°
2026-04-25 13:58 29.06675 -82.44977 36491 ft 452 kts 340°
2026-04-25 13:58 29.09646 -82.46190 36679 ft 452 kts 340°
2026-04-25 13:58 29.12599 -82.47395 36847 ft 451 kts 340°
2026-04-25 13:58 29.15563 -82.48605 37020 ft 450 kts 340°
2026-04-25 13:59 29.18512 -82.49811 37212 ft 450 kts 340°
2026-04-25 13:59 29.21466 -82.51018 37381 ft 449 kts 340°
2026-04-25 13:59 29.24442 -82.52079 37537 ft 449 kts 345°
2026-04-25 13:59 29.27483 -82.52851 37717 ft 448 kts 349°
2026-04-25 14:00 29.30541 -82.53346 37886 ft 448 kts 353°
2026-04-25 14:00 29.36742 -82.54097 37983 ft 447 kts 353°
2026-04-25 14:01 29.42908 -82.54885 37988 ft 446 kts 353°
2026-04-25 14:01 29.49074 -82.55667 37993 ft 446 kts 353°
2026-04-25 14:02 29.55251 -82.56447 37995 ft 446 kts 353°
2026-04-25 14:02 29.61425 -82.57227 37993 ft 446 kts 353°
2026-04-25 14:03 29.67562 -82.58003 37991 ft 446 kts 353°
2026-04-25 14:03 29.73728 -82.58784 37986 ft 446 kts 353°
2026-04-25 14:04 29.79894 -82.59565 37950 ft 447 kts 353°
2026-04-25 14:04 29.82986 -82.59957 37618 ft 446 kts 353°
2026-04-25 14:04 29.86077 -82.60350 37511 ft 446 kts 353°
2026-04-25 14:05 29.92268 -82.61136 37689 ft 448 kts 353°
2026-04-25 14:05 29.95366 -82.61531 37860 ft 448 kts 353°
2026-04-25 14:05 29.98461 -82.61924 37984 ft 448 kts 353°
2026-04-25 14:06 30.04640 -82.62710 37987 ft 446 kts 353°
2026-04-25 14:06 30.10817 -82.63514 37988 ft 446 kts 352°
2026-04-25 14:07 30.16947 -82.64338 37988 ft 446 kts 352°
2026-04-25 14:07 30.23125 -82.65134 37989 ft 447 kts 352°
2026-04-25 14:08 30.29309 -82.65918 37985 ft 447 kts 352°
2026-04-25 14:08 30.35494 -82.66705 37986 ft 447 kts 352°
2026-04-25 14:09 30.41692 -82.67495 37985 ft 448 kts 352°
2026-04-25 14:09 30.47899 -82.68181 37992 ft 448 kts 356°
2026-04-25 14:10 30.54147 -82.67881 37999 ft 451 kts
2026-04-25 14:10 30.60302 -82.66638 38004 ft 452 kts
2026-04-25 14:11 30.66487 -82.65328 38007 ft 452 kts
2026-04-25 14:11 30.72681 -82.64015 38009 ft 452 kts
2026-04-25 14:12 30.78871 -82.62692 38005 ft 453 kts
2026-04-25 14:12 30.85076 -82.61363 37998 ft 453 kts
2026-04-25 14:13 30.91278 -82.60033 37991 ft 454 kts
2026-04-25 14:13 30.97503 -82.58696 37989 ft 454 kts
2026-04-25 14:14 31.03689 -82.57366 37988 ft 455 kts
2026-04-25 14:14 31.09927 -82.56087 37983 ft 454 kts
2026-04-25 14:15 31.16212 -82.55174 37975 ft 455 kts
2026-04-25 14:15 31.22503 -82.54234 37980 ft 455 kts
2026-04-25 14:16 31.28798 -82.53293 37905 ft 456 kts
2026-04-25 14:16 31.31958 -82.52821 37718 ft 457 kts
2026-04-25 14:16 31.35098 -82.52352 37528 ft 457 kts
2026-04-25 14:16 31.38218 -82.51885 37335 ft 456 kts
2026-04-25 14:17 31.41400 -82.51409 37091 ft 454 kts
2026-04-25 14:17 31.47678 -82.50470 36971 ft 461 kts
2026-04-25 14:18 31.54040 -82.49515 36970 ft 460 kts
2026-04-25 14:18 31.60409 -82.48559 36966 ft 461 kts
2026-04-25 14:19 31.66777 -82.47600 36965 ft 461 kts
2026-04-25 14:19 31.73143 -82.46642 36953 ft 462 kts
2026-04-25 14:20 31.79528 -82.45678 36951 ft 462 kts
2026-04-25 14:20 31.85909 -82.44715 36956 ft 462 kts
2026-04-25 14:21 31.92294 -82.43750 36969 ft 463 kts
2026-04-25 14:21 31.98653 -82.42788 36961 ft 463 kts
2026-04-25 14:22 32.05054 -82.41818 36961 ft 463 kts
2026-04-25 14:22 32.11446 -82.40846 36972 ft 464 kts
2026-04-25 14:23 32.17855 -82.39873 36972 ft 464 kts
2026-04-25 14:23 32.24258 -82.38897 36970 ft 464 kts
2026-04-25 14:24 32.30668 -82.37919 36972 ft 464 kts
2026-04-25 14:24 32.37091 -82.36939 36959 ft 464 kts
2026-04-25 14:25 32.43505 -82.35958 36949 ft 465 kts
2026-04-25 14:25 32.49920 -82.34976 36944 ft 465 kts
2026-04-25 14:26 32.56300 -82.33998 36941 ft 465 kts
2026-04-25 14:26 32.62715 -82.33012 36938 ft 465 kts
2026-04-25 14:27 32.69142 -82.32025 36927 ft 465 kts
2026-04-25 14:27 32.75561 -82.31035 36933 ft 465 kts
2026-04-25 14:28 32.81995 -82.30043 36930 ft 466 kts
2026-04-25 14:28 32.88424 -82.29050 36925 ft 465 kts
2026-04-25 14:29 32.94852 -82.28057 36926 ft 465 kts
2026-04-25 14:29 33.01283 -82.27060 36923 ft 465 kts
2026-04-25 14:30 33.07704 -82.26065 36927 ft 465 kts
2026-04-25 14:30 33.17303 -82.24571 36928 ft 465 kts
2026-04-25 14:31 33.23724 -82.23573 36926 ft 465 kts
2026-04-25 14:31 33.30157 -82.22570 36937 ft 466 kts
2026-04-25 14:32 33.36582 -82.21566 36942 ft 466 kts
2026-04-25 14:32 33.43013 -82.20560 36943 ft 466 kts
2026-04-25 14:33 33.49443 -82.19552 36949 ft 466 kts
2026-04-25 14:33 33.55841 -82.18548 36946 ft 466 kts
2026-04-25 14:34 33.62282 -82.17536 36942 ft 466 kts
2026-04-25 14:34 33.68730 -82.16522 36938 ft 466 kts
2026-04-25 14:35 33.75157 -82.15469 36929 ft 466 kts
2026-04-25 14:35 33.81534 -82.14333 36923 ft 466 kts
2026-04-25 14:36 33.87960 -82.13196 36923 ft 466 kts
2026-04-25 14:36 33.94378 -82.12069 36929 ft 466 kts
2026-04-25 14:37 34.00803 -82.10943 36938 ft 466 kts
2026-04-25 14:37 34.07230 -82.09813 36940 ft 466 kts
2026-04-25 14:38 34.13659 -82.08680 36944 ft 466 kts
2026-04-25 14:38 34.20039 -82.07555 36950 ft 466 kts
2026-04-25 14:39 34.26470 -82.06418 36949 ft 466 kts
2026-04-25 14:39 34.32903 -82.05280 36946 ft 466 kts
2026-04-25 14:40 34.39317 -82.04144 36946 ft 466 kts
2026-04-25 14:40 34.45746 -82.03003 36949 ft 466 kts
2026-04-25 14:41 34.52135 -82.01867 36947 ft 467 kts
2026-04-25 14:41 34.58558 -82.00724 36951 ft 467 kts
2026-04-25 14:42 34.62858 -81.99958 36946 ft 467 kts
2026-04-25 14:42 34.70340 -81.98623 36932 ft 467 kts
2026-04-25 14:43 34.76772 -81.97473 36934 ft 467 kts
2026-04-25 14:43 34.84243 -81.96136 36942 ft 467 kts
2026-04-25 14:44 34.89627 -81.95169 36942 ft 467 kts
2026-04-25 14:44 34.96070 -81.94012 36939 ft 467 kts
2026-04-25 14:45 35.02464 -81.92872 36936 ft 467 kts
2026-04-25 14:45 35.08961 -81.92450 36928 ft 464 kts 358°
2026-04-25 14:46 35.15415 -81.92159 36919 ft 464 kts 358°
2026-04-25 14:46 35.21851 -81.91858 36927 ft 465 kts 358°
2026-04-25 14:47 35.27226 -81.91611 36943 ft 465 kts 358°
2026-04-25 14:47 35.34799 -81.91266 36961 ft 465 kts 358°
2026-04-25 14:48 35.41279 -81.90969 36960 ft 465 kts 358°
2026-04-25 14:48 35.47761 -81.90672 36962 ft 466 kts 358°
2026-04-25 14:49 35.54199 -81.90376 36958 ft 466 kts 358°
2026-04-25 14:49 35.60695 -81.90077 36943 ft 466 kts 358°
2026-04-25 14:50 35.67151 -81.89779 36923 ft 466 kts 358°
2026-04-25 14:50 35.73634 -81.89480 36932 ft 467 kts 357°
2026-04-25 14:51 35.80151 -81.89179 36935 ft 467 kts 357°
2026-04-25 14:51 35.86652 -81.88878 36932 ft 467 kts 357°
2026-04-25 14:52 35.93119 -81.88576 36926 ft 467 kts 357°
2026-04-25 14:52 35.98566 -81.88325 36904 ft 468 kts 357°
2026-04-25 14:53 36.06135 -81.87972 36911 ft 468 kts 357°
2026-04-25 14:53 36.12648 -81.87669 36893 ft 469 kts 357°
2026-04-25 14:54 36.19139 -81.87365 36895 ft 469 kts 357°
2026-04-25 14:54 36.25682 -81.87059 36894 ft 469 kts 357°
2026-04-25 14:55 36.32213 -81.86753 36903 ft 469 kts 356°
2026-04-25 14:55 36.38757 -81.86448 36913 ft 470 kts 356°
2026-04-25 14:56 36.45258 -81.86142 36931 ft 471 kts 356°
2026-04-25 14:56 36.51815 -81.85832 36946 ft 471 kts 356°
2026-04-25 14:57 36.58365 -81.85524 36959 ft 471 kts 356°
2026-04-25 14:57 36.64919 -81.85214 36965 ft 471 kts 356°
2026-04-25 14:58 36.71483 -81.84903 36963 ft 472 kts 356°
2026-04-25 14:58 36.78014 -81.84593 36956 ft 472 kts 356°
2026-04-25 14:59 36.84600 -81.84281 36949 ft 473 kts 356°
2026-04-25 14:59 36.91188 -81.83967 36985 ft 473 kts 356°
2026-04-25 15:00 36.97728 -81.83655 37009 ft 473 kts 356°
2026-04-25 15:00 37.04313 -81.83340 37010 ft 473 kts 356°
2026-04-25 15:01 37.10894 -81.83025 37004 ft 473 kts 356°
2026-04-25 15:01 37.17484 -81.82711 36997 ft 473 kts 356°
2026-04-25 15:02 37.24075 -81.82396 36974 ft 474 kts 356°
2026-04-25 15:02 37.30633 -81.82080 36952 ft 474 kts 356°
2026-04-25 15:03 37.37236 -81.81763 36930 ft 474 kts 356°
2026-04-25 15:03 37.40543 -81.81604 36723 ft 476 kts 356°
2026-04-25 15:03 37.43852 -81.81444 36475 ft 476 kts 356°
2026-04-25 15:04 37.47165 -81.81283 36218 ft 477 kts 356°
2026-04-25 15:04 37.50488 -81.81123 35964 ft 479 kts 356°
2026-04-25 15:04 37.53827 -81.80962 35719 ft 480 kts 356°
2026-04-25 15:04 37.57168 -81.80926 35468 ft 477 kts 351°
2026-04-25 15:05 37.60462 -81.81365 35244 ft 474 kts 344°
2026-04-25 15:05 37.63668 -81.82260 34998 ft 469 kts 338°
2026-04-25 15:05 37.66734 -81.83474 34774 ft 469 kts 336°
2026-04-25 15:06 37.73009 -81.85940 34292 ft 473 kts 336°
2026-04-25 15:06 37.76162 -81.87169 34063 ft 474 kts 336°
2026-04-25 15:06 37.79319 -81.88403 33833 ft 476 kts 336°
2026-04-25 15:06 37.82480 -81.89643 33553 ft 477 kts 336°
2026-04-25 15:07 37.85654 -81.90892 33291 ft 477 kts 336°
2026-04-25 15:07 37.88829 -81.92142 33032 ft 478 kts 336°
2026-04-25 15:07 37.91971 -81.93379 32764 ft 478 kts 336°
2026-04-25 15:07 37.95201 -81.94654 32509 ft 480 kts 336°
2026-04-25 15:08 37.98346 -81.95895 32257 ft 480 kts 336°
2026-04-25 15:08 38.01536 -81.97158 32006 ft 482 kts 337°
2026-04-25 15:08 38.04742 -81.98425 31757 ft 483 kts 337°
2026-04-25 15:08 38.07939 -81.99689 31505 ft 482 kts 337°
2026-04-25 15:09 38.11141 -82.00957 31266 ft 480 kts 337°
2026-04-25 15:09 38.14328 -82.02220 31027 ft 479 kts 337°
2026-04-25 15:09 38.20699 -82.04750 30920 ft 480 kts 337°
2026-04-25 15:10 38.27063 -82.07283 30918 ft 480 kts 338°
2026-04-25 15:10 38.33448 -82.09828 30766 ft 480 kts 338°
2026-04-25 15:11 38.36641 -82.11102 30534 ft 479 kts 338°
2026-04-25 15:11 38.39772 -82.12351 30299 ft 478 kts 338°
2026-04-25 15:11 38.42944 -82.13619 30065 ft 477 kts 338°
2026-04-25 15:12 38.49320 -82.15996 29523 ft 477 kts 344°
2026-04-25 15:12 38.52605 -82.16658 29254 ft 478 kts 348°
2026-04-25 15:12 38.55908 -82.17251 28979 ft 476 kts 347°
2026-04-25 15:12 38.56970 -82.17447 28893 ft 476 kts 347°
2026-04-25 15:13 38.62405 -82.18464 28448 ft 473 kts 347°
2026-04-25 15:13 38.68891 -82.19681 27924 ft 469 kts 347°
2026-04-25 15:13 38.72112 -82.20284 27668 ft 467 kts 347°
2026-04-25 15:14 38.75320 -82.20885 27411 ft 465 kts 347°
2026-04-25 15:14 38.78519 -82.21484 27153 ft 463 kts 347°
2026-04-25 15:14 38.81699 -82.22081 26910 ft 461 kts 347°
2026-04-25 15:14 38.84863 -82.22675 26661 ft 458 kts 347°
2026-04-25 15:15 38.88021 -82.23269 26115 ft 458 kts 347°
2026-04-25 15:15 38.91185 -82.23866 25396 ft 461 kts 347°
2026-04-25 15:15 38.94343 -82.24462 24709 ft 458 kts 347°
2026-04-25 15:15 38.97480 -82.25053 24068 ft 454 kts 348°
2026-04-25 15:16 39.00597 -82.25639 23419 ft 450 kts 348°
2026-04-25 15:16 39.03692 -82.26223 22686 ft 447 kts 348°
2026-04-25 15:16 39.09747 -82.27365 21448 ft 434 kts 348°
2026-04-25 15:17 39.15652 -82.28485 20169 ft 424 kts 348°
2026-04-25 15:17 39.18552 -82.29036 19503 ft 420 kts 348°
2026-04-25 15:17 39.21426 -82.29582 18906 ft 414 kts 348°
2026-04-25 15:18 39.24230 -82.30116 18261 ft 410 kts 348°
2026-04-25 15:18 39.29784 -82.31172 17086 ft 395 kts 349°
2026-04-25 15:18 39.32483 -82.31686 16468 ft 389 kts 349°
2026-04-25 15:19 39.35143 -82.32193 15873 ft 383 kts 349°
2026-04-25 15:19 39.36032 -82.32363 15670 ft 382 kts 349°
2026-04-25 15:19 39.40346 -82.33189 14695 ft 372 kts 349°
2026-04-25 15:19 39.42897 -82.33678 14065 ft 368 kts 349°
2026-04-25 15:20 39.45406 -82.34158 13534 ft 361 kts 350°
2026-04-25 15:20 39.47870 -82.34629 12953 ft 355 kts 350°
2026-04-25 15:20 39.50263 -82.35277 12400 ft 346 kts 342°
2026-04-25 15:20 39.52474 -82.36322 11909 ft 342 kts 335°
2026-04-25 15:21 39.54664 -82.37649 11654 ft 351 kts 334°
2026-04-25 15:21 39.56777 -82.39269 11404 ft 347 kts 319°
2026-04-25 15:21 39.58296 -82.41614 11136 ft 344 kts 301°
2026-04-25 15:21 39.59128 -82.44517 10604 ft 347 kts 281°
2026-04-25 15:22 39.59315 -82.47600 10332 ft 336 kts 273°
2026-04-25 15:22 39.59393 -82.50553 10167 ft 319 kts 273°
2026-04-25 15:22 39.59479 -82.53353 10009 ft 301 kts 274°
2026-04-25 15:22 39.59589 -82.56009 9670 ft 291 kts 275°
2026-04-25 15:23 39.59720 -82.58595 9320 ft 282 kts 276°
2026-04-25 15:23 39.59995 -82.61076 9190 ft 282 kts 283°
2026-04-25 15:23 39.60379 -82.63595 8986 ft 285 kts 283°
2026-04-25 15:23 39.60756 -82.66120 8594 ft 285 kts 283°
2026-04-25 15:24 39.61122 -82.68629 8208 ft 280 kts 283°
2026-04-25 15:24 39.61474 -82.71083 7917 ft 278 kts 283°
2026-04-25 15:24 39.61831 -82.73567 7529 ft 280 kts 283°
2026-04-25 15:24 39.61946 -82.74369 7417 ft 278 kts 283°
2026-04-25 15:25 39.62527 -82.78428 6832 ft 276 kts 282°
2026-04-25 15:25 39.62877 -82.80876 6465 ft 273 kts 283°
2026-04-25 15:25 39.63219 -82.83287 6107 ft 272 kts 283°
2026-04-25 15:25 39.63564 -82.85707 5718 ft 271 kts 283°
2026-04-25 15:26 39.63896 -82.88070 5408 ft 263 kts 283°
2026-04-25 15:26 39.63960 -82.90472 5116 ft 271 kts 263°
2026-04-25 15:26 39.63243 -82.92723 4821 ft 271 kts 237°
2026-04-25 15:26 39.62081 -82.94580 4522 ft 261 kts 232°
2026-04-25 15:27 39.60940 -82.96362 4222 ft 253 kts 232°
2026-04-25 15:27 39.60205 -82.97510 4126 ft 244 kts 232°
2026-04-25 15:27 39.58943 -83.01365 4011 ft 234 kts 277°
2026-04-25 15:28 39.59679 -83.03904 4009 ft 227 kts 303°
2026-04-25 15:28 39.60463 -83.05683 4004 ft 227 kts 303°
2026-04-25 15:28 39.60983 -83.06869 3998 ft 218 kts 303°
2026-04-25 15:28 39.61703 -83.08514 3996 ft 202 kts 303°
2026-04-25 15:29 39.62543 -83.09846 3999 ft 182 kts 328°
2026-04-25 15:29 39.63695 -83.10383 4011 ft 179 kts 350°
2026-04-25 15:29 39.64895 -83.10637 3978 ft 167 kts 353°
2026-04-25 15:29 39.65999 -83.10851 3852 ft 158 kts 352°
2026-04-25 15:30 39.67054 -83.10792 3777 ft 154 kts 16°
2026-04-25 15:30 39.68017 -83.10074 3729 ft 162 kts 38°
2026-04-25 15:30 39.68794 -83.09037 3642 ft 159 kts 45°
2026-04-25 15:30 39.69561 -83.07984 3583 ft 163 kts 41°
2026-04-25 15:31 39.70366 -83.06950 3405 ft 162 kts 42°
2026-04-25 15:31 39.71139 -83.05931 3228 ft 157 kts 41°
2026-04-25 15:31 39.71896 -83.04950 3043 ft 149 kts 42°
2026-04-25 15:31 39.72609 -83.04013 2858 ft 147 kts 41°
2026-04-25 15:32 39.73336 -83.03067 2667 ft 147 kts 42°
2026-04-25 15:32 39.74050 -83.02122 2468 ft 147 kts 40°
2026-04-25 15:32 39.74768 -83.01194 2278 ft 145 kts 42°
2026-04-25 15:33 39.76199 -82.99317 1887 ft 145 kts 41°
2026-04-25 15:33 39.76922 -82.98366 1689 ft 150 kts 41°
2026-04-25 15:33 39.77639 -82.97424 1464 ft 143 kts 42°
2026-04-25 15:33 39.78353 -82.96488 1283 ft 149 kts 41°
2026-04-25 15:34 39.79090 -82.95544 1055 ft 149 kts 41°
2026-04-25 15:34 39.79760 -82.94647 876 ft 133 kts 42°
2026-04-25 15:34 39.80373 -82.93830 749 ft 100 kts 45°
2026-04-25 15:34 39.80584 -82.93572 747 ft 28 kts 42°
2026-04-25 15:35 39.80734 -82.93391 747 ft 16 kts 42°
2026-04-25 15:35 39.80784 -82.93349 746 ft 23 kts 22°
2026-04-25 15:35 39.80877 -82.93408 748 ft 16 kts 310°
2026-04-25 15:36 39.81040 -82.93606 756 ft 15 kts 319°
2026-04-25 15:36 39.81115 -82.93706 754 ft 14 kts 314°
2026-04-25 15:36 39.81191 -82.93763 752 ft 12 kts 353°
2026-04-25 15:37 39.81263 -82.93719 751 ft 12 kts 34°
2026-04-25 15:37 39.81365 -82.93688 753 ft 17 kts
2026-04-25 15:37 39.81477 -82.93665 751 ft 12 kts
2026-04-25 15:37 39.81499 -82.93662 753 ft 16 kts
2026-04-25 15:38 39.81569 -82.93651 753 ft 21 kts
2026-04-25 15:38 39.81626 -82.93632 752 ft 0 kts 17°